Weather History for Clovis, NM

Change the Weather History Date:

Sunday, February 3, 2013

  Actual Average Record
Temperature  
Mean Temperature 42 °F -  
Max Temperature 57 °F 53 °F 72 °F (1987)
Min Temperature 28 °F 23 °F -7 °F (2011)
Degree Days  
Heating Degree Days 22    
Moisture  
Dew Point 23 °F    
Average Humidity 43    
Maximum Humidity 59    
Minimum Humidity 29    
Precipitation  
Precipitation 0.00 in - - ()
Sea Level Pressure  
Sea Level Pressure 30.12 in    
Wind  
Wind Speed 12 mph (SW)    
Max Wind Speed 24 mph    
Max Gust Speed 29 mph    
Visibility 10 miles    
Events      
Averages and records for this station are not official NWS values.
T = Trace of Precipitation, MM = Missing Value Source: NWS Daily Summary

Daily Weather History Graph

Daily Weather History Graph

Search for Another Location

Airport:

Trip Planner

Search our weather history database for the weather conditions in past years. The results will help you decide how hot, cold, wet, or windy it might be!

Date:

Astronomy

Feb. 03, 2013 Rise Set
Actual Time 6:48 AM MST 5:24 PM MST
Civil Twilight 6:22 AM MST 5:50 PM MST
Nautical Twilight 5:52 AM MST 6:20 PM MST
Astronomical Twilight 5:22 AM MST 6:50 PM MST
Moon 12:17 AM MST (2/3) 11:04 AM MST (2/3)
Length of Visible Light 11h 28m
Length of Day
10h 36m
Waning Gibbous, 48% of the Moon is Illuminated
Feb 3
Waning Gibbous
Feb 10
New
Feb 17
First Quarter
Feb 25
Full
Mar 4
Last Quarter

Hourly Weather History & Observations

Time (MST) Temp. Windchill Dew Point Humidity Pressure Visibility Wind Dir Wind Speed Gust Speed Precip Events Conditions
12:15 AM 33.8 °F 28.6 °F 14.0 °F 44% 30.34 in 10.0 mi WSW 5.8 mph - N/A   Clear
12:35 AM 33.8 °F 26.4 °F 15.8 °F 48% 30.33 in 10.0 mi WSW 9.2 mph - N/A   Clear
12:55 AM 32.0 °F 24.2 °F 14.0 °F 48% 30.33 in 10.0 mi WSW 9.2 mph - N/A   Clear
1:15 AM 33.8 °F 26.4 °F 15.8 °F 48% 30.32 in 10.0 mi WSW 9.2 mph - N/A   Clear
1:35 AM 30.2 °F 21.9 °F 14.0 °F 51% 30.31 in 10.0 mi SW 9.2 mph - N/A   Clear
1:55 AM 30.2 °F 21.9 °F 12.2 °F 47% 30.31 in 10.0 mi SW 9.2 mph - N/A   Clear
2:15 AM 30.2 °F 20.8 °F 14.0 °F 51% 30.30 in 10.0 mi SW 11.5 mph - N/A   Clear
2:55 AM 32.0 °F 23.0 °F 15.8 °F 51% 30.28 in 10.0 mi WSW 11.5 mph - N/A   Clear
3:15 AM 33.8 °F 25.3 °F 15.8 °F 48% 30.28 in 10.0 mi WSW 11.5 mph - N/A   Clear
3:35 AM 33.8 °F 25.3 °F 15.8 °F 48% 30.28 in 10.0 mi SW 11.5 mph - N/A   Clear
3:55 AM 32.0 °F 24.2 °F 15.8 °F 51% 30.27 in 10.0 mi WSW 9.2 mph - N/A   Clear
4:15 AM 30.2 °F 21.9 °F 15.8 °F 55% 30.28 in 10.0 mi WSW 9.2 mph - N/A   Clear
4:35 AM 30.2 °F 23.4 °F 15.8 °F 55% 30.28 in 10.0 mi SW 6.9 mph - N/A   Clear
4:55 AM 30.2 °F 22.6 °F 15.8 °F 55% 30.27 in 10.0 mi SW 8.1 mph - N/A   Clear
5:15 AM 28.4 °F 20.4 °F 15.8 °F 59% 30.27 in 10.0 mi WSW 8.1 mph - N/A   Clear
5:35 AM 28.4 °F 20.4 °F 15.8 °F 59% 30.27 in 10.0 mi WSW 8.1 mph - N/A   Clear
5:55 AM 28.4 °F 19.7 °F 14.0 °F 55% 30.27 in 10.0 mi WSW 9.2 mph - N/A   Clear
6:15 AM 28.4 °F 20.4 °F 15.8 °F 59% 30.27 in 10.0 mi WSW 8.1 mph - N/A   Clear
6:35 AM 28.4 °F 20.4 °F 15.8 °F 59% 30.26 in 10.0 mi WSW 8.1 mph - N/A   Clear
6:55 AM 30.2 °F 22.6 °F 15.8 °F 55% 30.26 in 10.0 mi WSW 8.1 mph - N/A   Clear
7:15 AM 28.4 °F 20.4 °F 15.8 °F 59% 30.26 in 10.0 mi WSW 8.1 mph - N/A   Clear
7:35 AM 33.8 °F 25.8 °F 19.4 °F 56% 30.26 in 10.0 mi SW 10.4 mph - N/A   Clear
7:55 AM 37.4 °F 30.3 °F 19.4 °F 48% 30.26 in 10.0 mi SW 10.4 mph - N/A   Clear
8:15 AM 39.2 °F 31.6 °F 19.4 °F 45% 30.25 in 10.0 mi SW 12.7 mph - N/A   Clear
8:35 AM 39.2 °F 31.2 °F 21.2 °F 49% 30.25 in 10.0 mi SW 13.8 mph - N/A   Clear
8:55 AM 42.8 °F 35.1 °F 23.0 °F 46% 30.24 in 10.0 mi SW 16.1 mph - N/A   Clear
9:15 AM 46.4 °F 39.5 °F 24.8 °F 43% 30.24 in 10.0 mi SSW 17.3 mph 20.7 mph N/A   Clear
9:35 AM 46.4 °F 40.4 °F 24.8 °F 43% 30.23 in 10.0 mi SSW 13.8 mph - N/A   Clear
9:55 AM 50.0 °F - 26.6 °F 40% 30.22 in 10.0 mi SSW 18.4 mph 21.9 mph N/A   Clear
10:15 AM 51.8 °F - 26.6 °F 38% 30.22 in 10.0 mi SSW 18.4 mph - N/A   Clear
10:35 AM 51.8 °F - 26.6 °F 38% 30.21 in 10.0 mi SSW 18.4 mph - N/A   Clear
10:55 AM 53.6 °F - 24.8 °F 33% 30.19 in 10.0 mi SSW 18.4 mph 24.2 mph N/A   Clear
11:15 AM 53.6 °F - 24.8 °F 33% 30.18 in 10.0 mi SSW 20.7 mph 25.3 mph N/A   Clear
11:35 AM 53.6 °F - 26.6 °F 35% 30.18 in 10.0 mi SSW 20.7 mph - N/A   Clear
11:55 AM 53.6 °F - 24.8 °F 33% 30.16 in 10.0 mi SSW 23.0 mph - N/A   Clear
12:15 PM 55.4 °F - 24.8 °F 31% 30.14 in 10.0 mi SSW 17.3 mph 21.9 mph N/A   Clear
12:35 PM 55.4 °F - 24.8 °F 31% 30.12 in 10.0 mi SSW 24.2 mph - N/A   Clear
12:55 PM 55.4 °F - 24.8 °F 31% 30.11 in 10.0 mi SSW 21.9 mph 25.3 mph N/A   Clear
1:15 PM 55.4 °F - 26.6 °F 33% 30.09 in 10.0 mi SSW 20.7 mph 28.8 mph N/A   Clear
1:35 PM 57.2 °F - 24.8 °F 29% 30.07 in 10.0 mi SSW 20.7 mph - N/A   Clear
1:55 PM 55.4 °F - 24.8 °F 31% 30.06 in 10.0 mi SSW 21.9 mph 27.6 mph N/A   Clear
2:15 PM 55.4 °F - 24.8 °F 31% 30.05 in 10.0 mi SSW 18.4 mph - N/A   Clear
2:35 PM 55.4 °F - 24.8 °F 31% 30.04 in 10.0 mi South 21.9 mph 26.5 mph N/A   Clear
2:55 PM 55.4 °F - 24.8 °F 31% 30.03 in 10.0 mi SSW 18.4 mph - N/A   Clear
3:15 PM 55.4 °F - 26.6 °F 33% 30.02 in 10.0 mi SSW 19.6 mph 24.2 mph N/A   Clear
3:35 PM 55.4 °F - 26.6 °F 33% 30.01 in 10.0 mi SSW 17.3 mph 23.0 mph N/A   Clear
3:55 PM 55.4 °F - 26.6 °F 33% 30.00 in 10.0 mi SSW 21.9 mph - N/A   Clear
4:15 PM 55.4 °F - 28.4 °F 36% 30.00 in 10.0 mi SSW 16.1 mph - N/A   Partly Cloudy
4:35 PM 55.4 °F - 28.4 °F 36% 29.99 in 10.0 mi SSW 18.4 mph - N/A   Mostly Cloudy
4:55 PM 53.6 °F - 26.6 °F 35% 29.98 in 10.0 mi SSW 16.1 mph 20.7 mph N/A   Scattered Clouds
5:15 PM 53.6 °F - 26.6 °F 35% 29.97 in 10.0 mi SSW 16.1 mph - N/A   Mostly Cloudy
5:35 PM 53.6 °F - 26.6 °F 35% 29.97 in 10.0 mi SSW 12.7 mph - N/A   Mostly Cloudy
5:55 PM 51.8 °F - 28.4 °F 41% 29.97 in 10.0 mi SSW 11.5 mph - N/A   Overcast
6:15 PM 51.8 °F - 28.4 °F 41% 29.96 in 10.0 mi SSW 9.2 mph - N/A   Overcast
6:35 PM 51.8 °F - 28.4 °F 41% 29.96 in 10.0 mi SW 12.7 mph - N/A   Mostly Cloudy
6:55 PM 51.8 °F - 28.4 °F 41% 29.97 in 10.0 mi SW 10.4 mph - N/A   Mostly Cloudy
7:15 PM 50.0 °F - 28.4 °F 43% 29.96 in 10.0 mi SW 10.4 mph - N/A   Scattered Clouds
7:35 PM 48.2 °F - 28.4 °F 46% 29.96 in 10.0 mi SW 10.4 mph - N/A   Partly Cloudy
7:55 PM 48.2 °F - 28.4 °F 46% 29.95 in 10.0 mi SW 10.4 mph - N/A   Mostly Cloudy
8:15 PM 48.2 °F - 28.4 °F 46% 29.95 in 10.0 mi SW 10.4 mph - N/A   Overcast
8:35 PM 46.4 °F 41.9 °F 26.6 °F 46% 29.95 in 10.0 mi WSW 9.2 mph - N/A   Overcast
8:55 PM 44.6 °F 40.2 °F 26.6 °F 49% 29.96 in 10.0 mi WSW 8.1 mph - N/A   Scattered Clouds
9:15 PM 44.6 °F 39.7 °F 26.6 °F 49% 29.96 in 10.0 mi SW 9.2 mph - N/A   Mostly Cloudy
9:35 PM 46.4 °F 41.5 °F 26.6 °F 46% 29.95 in 10.0 mi WSW 10.4 mph - N/A   Overcast
9:55 PM 46.4 °F 41.5 °F 26.6 °F 46% 29.95 in 10.0 mi WSW 10.4 mph - N/A   Overcast
10:15 PM 46.4 °F 41.5 °F 24.8 °F 43% 29.95 in 10.0 mi WSW 10.4 mph - N/A   Overcast
10:35 PM 46.4 °F 41.1 °F 26.6 °F 46% 29.94 in 10.0 mi WSW 11.5 mph - N/A   Overcast
10:55 PM 48.2 °F - 26.6 °F 43% 29.94 in 10.0 mi WSW 12.7 mph - N/A   Overcast
11:15 PM 48.2 °F - 26.6 °F 43% 29.93 in 10.0 mi WSW 13.8 mph - N/A   Overcast
11:35 PM 48.2 °F - 26.6 °F 43% 29.92 in 10.0 mi WSW 13.8 mph - N/A   Overcast
11:55 PM 48.2 °F - 26.6 °F 43% 29.92 in 10.0 mi WSW 13.8 mph - N/A   Overcast